Regional Weather Roundup
Issued by NWS Newport/Morehead, NC

Current Version | Previous Version | Graphics & Text | Print | Product List | Glossary Off
Versions: 1 2 3 4 5 6 7 8 9 10 11 12 13 14 15 16 17 18 19 20 21 22 23 24 25 26 27 28 29 30 31 32 33 34 35 36 37 38 39 40 41 42 43 44 45 46 47 48 49 50

000
ASUS42 KMHX 030313
RWRMHX
WEATHER ROUNDUP FOR EASTERN NORTH CAROLINA
NATIONAL WEATHER SERVICE NEWPORT/MOREHEAD CITY NC
1100 PM EDT THU JUL 02 2015

NOTE: "FAIR" INDICATES FEW OR NO CLOUDS BELOW 12,000 FEET
WITH NO SIGNIFICANT WEATHER AND/OR OBSTRUCTIONS TO VISIBILITY

NCZ015>017-031-032-045>047-102-103-030400-
NORTH COAST

CITY           SKY/WX    TMP DP  RH WIND       PRES   REMARKS
EDENTON        RAIN      74  70  88 CALM      29.90S
ELIZABETH CITY CLOUDY    73  70  90 S6        29.91R
KITTY HAWK     LGT RAIN  72  69  93 CALM      29.89S
MANTEO         LGT RAIN  73  72  97 CALM      29.91R

$$

NCZ045>047-081-094-103-104-030400-
CENTRAL COAST

CITY           SKY/WX    TMP DP  RH WIND       PRES   REMARKS
FRISCO         MOCLDY    79  74  84 SW15G25   29.91R
SWANQUARTER      N/A     75 N/A N/A W10       29.88R

$$

NCZ095-097-098-100-101-030400-
SOUTHERN COAST

CITY           SKY/WX    TMP DP  RH WIND       PRES   REMARKS
BEAUFORT       CLOUDY    81  77  88 SW21G31   29.92S
CEDAR ISLAND     N/A     81 N/A N/A SW21G29   29.94S
JACKSONVILLE   CLOUDY    80  74  81 W10       29.91S
PINEY ISLAND   CLOUDY   N/A N/A N/A SW17G30   29.91S
WILMINGTON     LGT RAIN  73  69  87 SW15G22   29.95R


$$

NCZ011>013-027>030-043-044-078>080-089-090>093-098-030400-
COASTAL PLAIN

CITY           SKY/WX    TMP DP  RH WIND       PRES   REMARKS
AHOSKIE        CLOUDY    71  68  92 CALM      29.92R
CLINTON        CLOUDY    73  70  91 SW9       29.95S
ELIZABETHTOWN  CLOUDY    72  71  96 SW5       29.96R
GOLDSBORO      CLOUDY    75  71  88 SW12G18   29.90S
GREENVILLE     MOCLDY    73  72  94 W3        29.93S
HAVELOCK       MOCLDY    81  74  79 SW15G25   29.91S
KENANSVILLE    CLOUDY    75  66  74 SW10      29.94S
KINSTON        CLOUDY    75  72  90 W5        29.92S
NEW BERN       MOCLDY    81  72  74 SW9       29.91S
RICHLANDS      CLOUDY    77  68  73 SW12G17   29.92F
ROCKY MOUNT    LGT RAIN  74  73  97 S5        29.92R FOG
WASHINGTON     CLOUDY    72  71  96 CALM      29.91F
WHITEVILLE     LGT RAIN  72  69  92 SW8       29.97S

$$

AMZ130-135-150-152-154-156-158-170-250-252-270-ANZ085-086-088-633-658-670-030400-
MARINE OBSERVATIONS

STATION/POSITION TIME  TEMP    WIND        PRES    WAVE   SWELL
                       AIR SEA DIR/SP/G            HT/PER HT/PER
                 (UTC) (F)     (DEG/KT/KT) (MB)    (FT/S) (FT/S)
CHESAPEAKE LIGHT 0300   74     320/  8/  9 1012.7
64 E VA BEACH    0250   75 77  200/  8/  8 1011.1    4/ 8   3/ 8
DUCK             0200   71 60   40/ 10/ 10 1010.8
2 E DUCK         0211      68                N/A     2/ 9
OREGON INLET     0200   76 83  330/  5/ 12 1011.7
13E OREGON INLT  0300      72                N/A     5/ 6
HATTERAS CG      0200   79 80  210/ 14/ 20 1011.9
DIAMOND BUOY     0250   82 83  220/ 27/ 35 1012.1    8/ 6   2/11
CAPE LOOKOUT     0300   81     230/ 13/ 17 1013.1
BEAUFORT LAB     0200   81 81  220/ 13/ 23 1012.4
30 SE NEW RVR IN 0208   81 80  230/ 23/ 31 1013.2
27 SE WRIGHTSVLE 0200      81  230/ 23/ 27   N/A
5 SE WRIGHTSVLE  0208   81 80  220/ 23/ 31 1012.4
225 S CAPE HAT   0250   81 80  210/ 17/ 21 1019.1    6/ 7   3/ 7
41 SE CHARLESTON 0250   75 82  320/ 19/ 21 1015.1    6/ 6   2/ 9

$$



USA.gov is the U.S. government's official web portal to all federal, state and local government web resources and services.